Location: Carthage
(33.8834°N, 106.6595°W)
Time: 03:36:02
(UTC+00:00)

Cosmos 2322 Rocket - Pass Details

Date: 26 May 2026
Orbit: 831 x 850 km, 71.0° (Epoch: 9 June)

Event Time Altitude Azimuth Distance (km) Brightness Sun altitude
Rises 02:33:25 0° 345° (NNW) 3,409 6.1 -5.4°
Reaches altitude 10° 02:35:56 10° 350° (N) 2,473 5.3 -5.9°
Maximum altitude 02:41:28 51° 66° (ENE) 1,059 2.5 -6.9°
Drops below altitude 10° 02:46:58 10° 142° (SE) 2,467 4.0 -7.8°
Enters shadow 02:47:34 - 143° (SE) 2,688 4.2 -7.9°
